Weather History for Topeka Forbes, KS

Change the Weather History Date:

Friday, October 26, 2012

  Actual Average Record
Temperature  
Mean Temperature 38 °F -  
Max Temperature 46 °F 66 °F 87 °F (2014)
Min Temperature 30 °F 41 °F 25 °F (1957)
Degree Days  
Heating Degree Days 28    
Moisture  
Dew Point 26 °F    
Average Humidity 64    
Maximum Humidity 82    
Minimum Humidity 48    
Precipitation  
Precipitation 0.00 in - - ()
Sea Level Pressure  
Sea Level Pressure 30.44 in    
Wind  
Wind Speed 11 mph (North)    
Max Wind Speed 16 mph    
Max Gust Speed 22 mph    
Visibility 10 miles    
Events      
Averages and records for this station are not official NWS values.
T = Trace of Precipitation, MM = Missing Value Source: NWS Daily Summary

Daily Weather History Graph

Daily Weather History Graph

Search for Another Location

Airport:

Trip Planner

Search our weather history database for the weather conditions in past years. The results will help you decide how hot, cold, wet, or windy it might be!

Date:

Astronomy

Oct. 26, 2012 Rise Set
Actual Time 7:44 AM CDT 6:28 PM CDT
Civil Twilight 7:16 AM CDT 6:55 PM CDT
Nautical Twilight 6:45 AM CDT 7:27 PM CDT
Astronomical Twilight 6:14 AM CDT 7:58 PM CDT
Moon 4:43 PM CDT (10/26) 4:42 AM CDT (10/26)
Length of Visible Light 11h 39m
Length of Day
10h 44m
Waxing Gibbous, 91% of the Moon is Illuminated
Oct 26
Waxing Gibbous
Oct 29
Full
Nov 6
Last Quarter
Nov 13
New
Nov 20
First Quarter

Hourly Weather History & Observations

Time (CDT) Temp. Windchill Dew Point Humidity Pressure Visibility Wind Dir Wind Speed Gust Speed Precip Events Conditions
12:53 AM 37.0 °F 27.7 °F 27.0 °F 67% 30.35 in 10.0 mi North 16.1 mph 21.9 mph N/A   Overcast
1:53 AM 37.0 °F 28.5 °F 27.0 °F 67% 30.35 in 10.0 mi North 13.8 mph - N/A   Overcast
2:53 AM 37.0 °F 30.4 °F 27.0 °F 67% 30.37 in 10.0 mi North 9.2 mph - N/A   Overcast
3:53 AM 37.0 °F 28.1 °F 26.1 °F 65% 30.39 in 10.0 mi North 15.0 mph 20.7 mph N/A   Overcast
4:53 AM 35.1 °F 27.9 °F 25.0 °F 67% 30.39 in 10.0 mi North 9.2 mph 17.3 mph N/A   Scattered Clouds
5:53 AM 34.0 °F 26.0 °F 26.1 °F 73% 30.40 in 10.0 mi North 10.4 mph - N/A   Clear
6:53 AM 33.1 °F 25.5 °F 26.1 °F 75% 30.43 in 10.0 mi North 9.2 mph - N/A   Partly Cloudy
8:53 AM 34.0 °F 26.6 °F 27.0 °F 75% 30.48 in 10.0 mi North 9.2 mph - N/A   Clear
9:53 AM 36.0 °F 29.6 °F 27.0 °F 70% 30.51 in 10.0 mi North 8.1 mph - N/A   Clear
10:53 AM 39.0 °F 32.3 °F 27.0 °F 62% 30.51 in 10.0 mi NNE 10.4 mph 18.4 mph N/A   Clear
11:53 AM 41.0 °F 34.3 °F 26.1 °F 55% 30.52 in 10.0 mi NNE 11.5 mph - N/A   Scattered Clouds
12:53 PM 44.1 °F 37.4 °F 27.0 °F 51% 30.50 in 10.0 mi NNW 13.8 mph - N/A   Partly Cloudy
1:53 PM 43.0 °F 35.7 °F 26.1 °F 51% 30.48 in 10.0 mi NNW 15.0 mph 21.9 mph N/A   Clear
2:53 PM 43.0 °F 36.0 °F 26.1 °F 51% 30.45 in 10.0 mi North 13.8 mph - N/A   Clear
3:53 PM 45.0 °F 38.9 °F 26.1 °F 48% 30.43 in 10.0 mi North 12.7 mph 20.7 mph N/A   Clear
4:53 PM 45.0 °F 39.7 °F 26.1 °F 48% 30.42 in 10.0 mi North 10.4 mph - N/A   Clear
5:53 PM 43.0 °F 36.8 °F 26.1 °F 51% 30.42 in 10.0 mi NNW 11.5 mph - N/A   Clear
6:53 PM 39.0 °F 33.4 °F 26.1 °F 60% 30.43 in 10.0 mi North 8.1 mph - N/A   Clear
7:53 PM 36.0 °F 33.3 °F 25.0 °F 64% 30.45 in 10.0 mi North 3.5 mph - N/A   Clear
8:53 PM 33.1 °F - 26.1 °F 75% 30.45 in 10.0 mi Calm Calm - N/A   Clear
9:53 PM 30.0 °F 25.2 °F 25.0 °F 82% 30.45 in 10.0 mi North 4.6 mph - N/A   Clear
10:53 PM 30.0 °F 24.1 °F 24.1 °F 79% 30.45 in 10.0 mi North 5.8 mph - N/A   Clear
11:53 PM 33.1 °F 27.7 °F 25.0 °F 72% 30.43 in 10.0 mi NNE 5.8 mph - N/A   Clear